This demonstration page uses our WeatherBlox Daily Observations layout. Learn more.

Hourly Observations for January 29, 2019

Temp ( °F °C ) Dew Point ( °F °C ) Humidity (%) Winds ( mph kmh ) Pressure ( in mb ) Visibility ( mi km ) Precip ( " mm )
12:15 am 00:15 Mostly Cloudy 32 0 14 -10 47 47 S 7 11 30.03 1017 10 16.09344 0 0
12:35 am 00:35 Partly Cloudy 32 0 14 -10 47 47 S 8 13 30 1016 10 16.09344 0 0
12:55 am 00:55 Mostly Cloudy 32 0 18 -8 55 55 S 8 13 30 1016 10 16.09344 0 0
1:15 am 01:15 Cloudy 32 0 18 -8 55 55 S 7 11 30 1016 10 16.09344 0 0
1:35 am 01:35 Mostly Cloudy 32 0 18 -8 55 55 S 9 15 30 1016 10 16.09344 0 0
1:55 am 01:55 Partly Cloudy 32 0 19 -7 60 60 S 8 13 30 1016 10 16.09344 0 0
2:15 am 02:15 Partly Cloudy 32 0 19 -7 60 60 S 9 15 30 1016 10 16.09344 0 0
2:35 am 02:35 Mostly Cloudy 32 0 21 -6 64 64 SSE 6 9 29.97 1015 10 16.09344 0 0
2:55 am 02:55 Cloudy 32 0 21 -6 64 64 S 9 15 29.97 1015 10 16.09344 0 0
3:15 am 03:15 Mostly Cloudy 32 0 21 -6 64 64 S 8 13 29.97 1015 10 16.09344 0 0
3:35 am 03:35 Mostly Cloudy 32 0 21 -6 64 64 SSE 5 7 29.97 1015 10 16.09344 0 0
3:55 am 03:55 Cloudy 32 0 23 -5 69 69 S 8 13 29.97 1015 10 16.09344 0 0
4:15 am 04:15 Cloudy 32 0 23 -5 69 69 S 8 13 29.94 1014 10 16.09344 0 0
4:35 am 04:35 Cloudy 32 0 23 -5 69 69 SSE 8 13 29.94 1014 10 16.09344 0 0
4:55 am 04:55 Cloudy 32 0 23 -5 69 69 S 9 15 29.94 1014 10 16.09344 0 0
5:15 am 05:15 Cloudy 32 0 23 -5 69 69 S 10 17 29.94 1014 10 16.09344 0 0
5:35 am 05:35 Cloudy 32 0 23 -5 69 69 S 7 11 29.94 1014 10 16.09344 0 0
5:55 am 05:55 Cloudy 32 0 23 -5 69 69 S 9 15 29.94 1014 10 16.09344 0 0
6:15 am 06:15 Cloudy 32 0 23 -5 69 69 S 7 11 29.91 1013 10 16.09344 0 0
6:35 am 06:35 Cloudy 32 0 25 -4 75 75 S 9 15 29.91 1013 10 16.09344 0 0
6:55 am 06:55 Cloudy 32 0 25 -4 75 75 S 10 17 29.91 1013 10 16.09344 0 0
7:15 am 07:15 Cloudy 34 1 25 -4 70 70 S 8 13 29.91 1013 10 16.09344 0 0
7:35 am 07:35 Cloudy 32 0 27 -3 80 80 S 8 13 29.91 1013 10 16.09344 0 0
7:55 am 07:55 Cloudy 34 1 27 -3 75 75 S 6 9 29.91 1013 10 16.09344 0 0
8:15 am 08:15 Cloudy 34 1 27 -3 75 75 S 8 13 29.91 1013 10 16.09344 0 0
8:35 am 08:35 Cloudy 34 1 27 -3 75 75 SSE 8 13 29.91 1013 10 16.09344 0 0
8:55 am 08:55 Cloudy 34 1 27 -3 75 75 S 6 9 29.91 1013 10 16.09344 0 0
9:15 am 09:15 Cloudy 34 1 28 -2 81 81 S 7 11 29.91 1013 10 16.09344 0 0
9:35 am 09:35 Cloudy 34 1 28 -2 81 81 S 8 13 29.91 1013 10 16.09344 0 0
9:55 am 09:55 Cloudy 34 1 28 -2 81 81 S 7 11 29.91 1013 10 16.09344 0 0
10:15 am 10:15 Cloudy 34 1 28 -2 81 81 S 6 9 29.91 1013 10 16.09344 0 0
10:35 am 10:35 Cloudy 34 1 28 -2 81 81 S 8 13 29.91 1013 10 16.09344 0 0
10:55 am 10:55 Cloudy 34 1 28 -2 81 81 S 7 11 29.91 1013 10 16.09344 0 0
11:15 am 11:15 Cloudy 34 1 30 -1 87 87 S 5 7 29.88 1012 10 16.09344 0 0
11:35 am 11:35 Cloudy 36 2 30 -1 81 81 S 3 6 29.88 1012 10 16.09344 0 0
11:55 am 11:55 Cloudy 36 2 30 -1 81 81 SSW 3 6 29.88 1012 10 16.09344 0 0
12:15 pm 12:15 Cloudy 36 2 30 -1 81 81 SSW 3 6 29.85 1011 10 16.09344 0 0
12:35 pm 12:35 Cloudy 36 2 30 -1 81 81 Calm 29.85 1011 10 16.09344 0 0
12:55 pm 12:55 Cloudy with Light Snow 34 1 32 0 93 93 W 3 6 29.85 1011 3 4.828032 0 0
1:15 pm 13:15 Cloudy with Light Snow 34 1 32 0 93 93 Calm 29.83 1010 1.5 2.414016 0 0
1:35 pm 13:35 Cloudy with Light Snow 32 0 32 0 100 100 Calm 29.83 1010 1 1.609344 0 0
1:55 pm 13:55 Cloudy with Light Snow 32 0 32 0 100 100 NNW 3 6 29.83 1010 1.75 2.816352 0 0
2:15 pm 14:15 Cloudy with Light Snow 32 0 32 0 100 100 NW 7 11 29.83 1010 1.25 2.01168 0 0
2:35 pm 14:35 Cloudy with Light Snow 32 0 32 0 100 100 NNW 5 7 29.83 1010 1 1.609344 0 0
2:55 pm 14:55 Cloudy with Light Snow 32 0 32 0 100 100 WNW 3 6 29.83 1010 0.75 1.207008 0 0
3:15 pm 15:15 Cloudy with Snow 32 0 32 0 100 100 WNW 5 7 29.85 1011 0.5 0.804672 0 0
3:35 pm 15:35 Cloudy with Snow 32 0 32 0 100 100 Calm 29.85 1011 0.5 0.804672 0 0
3:55 pm 15:55 Cloudy with Light Snow 32 0 32 0 100 100 Calm 29.85 1011 0.75 1.207008 0 0
4:15 pm 16:15 Cloudy with Light Snow 32 0 32 0 100 100 Calm 29.85 1011 1.5 2.414016 0 0
4:35 pm 16:35 Cloudy with Light Snow 32 0 32 0 100 100 Calm 29.88 1012 0.75 1.207008 0 0
4:55 pm 16:55 Cloudy with Light Snow 32 0 32 0 100 100 SSE 3 6 29.85 1011 1 1.609344 0 0
5:15 pm 17:15 Cloudy with Light Snow 32 0 32 0 100 100 Calm 29.85 1011 1.75 2.816352 0 0
5:35 pm 17:35 Cloudy with Light Wintry Mix 32 0 32 0 100 100 Calm 29.88 1012 4 6.437376 0 0
5:55 pm 17:55 Cloudy with Mist and Fog 32 0 32 0 100 100 NNW 3 6 29.88 1012 4 6.437376 0 0
6:15 pm 18:15 Cloudy with Mist and Fog 32 0 32 0 100 100 NNW 5 7 29.88 1012 5 8.04672 0 0
6:35 pm 18:35 Cloudy with Mist and Fog 32 0 32 0 100 100 NNW 3 6 29.88 1012 5 8.04672 0 0
6:55 pm 18:55 Cloudy 32 0 32 0 100 100 NNW 5 7 29.91 1013 7 11.265408 0 0
7:15 pm 19:15 Cloudy 32 0 32 0 100 100 NNW 7 11 29.91 1013 10 16.09344 0 0
7:35 pm 19:35 Cloudy 32 0 28 -2 87 87 NW 14 22 29.91 1013 10 16.09344 0 0
7:55 pm 19:55 Cloudy 32 0 27 -3 80 80 NW 17 28 29.91 1013 10 16.09344 0 0
8:15 pm 20:15 Mostly Cloudy 30 -1 23 -5 75 75 NW 15 24 29.91 1013 7 11.265408 0 0
8:35 pm 20:35 Partly Cloudy 28 -2 21 -6 74 74 NW 14 22 29.94 1014 10 16.09344 0 0
8:55 pm 20:55 Clear 28 -2 21 -6 74 74 NNW 13 20 29.97 1015 10 16.09344 0 0
9:15 pm 21:15 Clear 28 -2 19 -7 69 69 NW 13 20 29.97 1015 10 16.09344 0 0
9:35 pm 21:35 Hazy 28 -2 19 -7 69 69 NNW 18 30 29.97 1015 5 8.04672 0 0
9:55 pm 21:55 Clear 27 -3 16 -9 64 64 NW 16 26 30 1016 7 11.265408 0 0
10:15 pm 22:15 Clear 27 -3 16 -9 64 64 NW 14 22 30 1016 10 16.09344 0 0
10:35 pm 22:35 Clear 27 -3 16 -9 64 64 NW 14 22 30.03 1017 10 16.09344 0 0
10:55 pm 22:55 Clear 25 -4 14 -10 63 63 NW 8 13 30.03 1017 10 16.09344 0 0
11:15 pm 23:15 Clear 23 -5 14 -10 68 68 NW 9 15 30.03 1017 10 16.09344 0 0
11:35 pm 23:35 Clear 25 -4 12 -11 59 59 NNW 10 17 30.03 1017 10 16.09344 0 0
11:55 pm 23:55 Clear 25 -4 12 -11 59 59 NW 7 11 30.03 1017 10 16.09344 0 0

Powered by AerisWeather